Content
SEND FEEDBACK

Daily
Averages
Monthly
Summary
United States of America

HAZLETON, PENNSYLVANIA


Home > North America > United States > Pennsylvania
Elevation: 1785 feet     Latitude: 41 01N     Longitude: 075 54W

WEATHER
 
SELECT A DAY
Number of Records: 216,051;   Date Range: 1/1/95 - 8/30/14
 
SHARE

PRINT THIS DATA

[ ← Previous Day ]
WEATHER ALMANAC - JANUARY 3, 2014
[ Next Day → ]
[ °C ]   °F
Weather ElementAverageHighLow
Temperature6.6 °F12.2 °F (12:18 am)-2 °F (9:54 pm)
Dewpoint-0.7 °F10.4 °F (12:18 am)-9 °F (11:54 pm)
Humidity72.3 %92 % (12:18 am)53 % (2:54 pm)
Barometer30.05 in30.47 in (7:54 pm)29.73 in (12:18 am)
Wind Speed13.4 mph24.2 mph (10:54 am)
Wind Gust32.2 mph (10:54 am)
Weather ElementAverage
Visibility4.7 mi
Wind DirectionWNW (284.4 °)

Weather ElementTotal
Precipitation0.14 in
Heating Degree Days59.9 (Base 65)
Averaged from 45 records on January 3, 2014
WEATHER CONDITIONS BREAKOUT
WIND DIRECTION BREAKOUT
WEATHER BY HOUR - JANUARY 3, 2014
[ °C ]   °F
Local TimeTemperatureDewpointHumidityBarometerVisibilityWind DirectionWind SpeedGust SpeedPrecipitationEventsConditions
12:18 AM12.2 °F10.4 °F92 %29.73 in1.0 miNorth (360°)6.9 mph0.01 inSnowLight Snow
12:27 AM12.2 °F10.4 °F92 %29.73 in0.8 miNW (320°)12.7 mph19.6 mph0.02 inSnowLight Snow
12:51 AM12.2 °F8.6 °F85 %29.73 in1.0 miNW (320°)13.8 mph21.9 mph0.03 inSnowLight Snow
12:54 AM12.0 °F8.1 °F84 %29.77 in1.0 miNW (320°)17.3 mph21.9 mph0.03 inSnowLight Snow
1:30 AM12.2 °F6.8 °F79 %29.73 in1.2 miNorth (350°)8.1 mph0.01 inSnowLight Snow
1:54 AM10.9 °F5.0 °F77 %29.79 in1.2 miNorth (10°)8.1 mph23.0 mph0.02 inSnowLight Snow
2:19 AM10.4 °F5.0 °F79 %29.76 in1.5 miNorth (350°)5.8 mph0.00 inSnowLight Snow
2:41 AM10.4 °F5.0 °F79 %29.78 in1.0 miNW (310°)13.8 mph21.9 mph0.01 inSnowLight Snow
2:54 AM9.0 °F3.9 °F80 %29.82 in1.2 miNW (320°)15.0 mph24.2 mph0.01 inSnowLight Snow
3:27 AM8.6 °F3.2 °F79 %29.80 in1.2 miNW (320°)13.8 mph21.9 mph0.00 inSnowLight Snow
3:54 AM8.1 °F1.9 °F76 %29.85 in1.5 miNNW (340°)13.8 mph21.9 mph0.00 inSnowLight Snow
4:14 AM8.6 °F1.4 °F73 %29.82 in2.5 miNW (320°)12.7 mph23.0 mph0.00 inSnowLight Snow
4:28 AM8.6 °F1.4 °F73 %29.83 in4.0 miNNW (330°)12.7 mph24.2 mph0.00 inSnowLight Snow
4:42 AM8.6 °F1.4 °F73 %29.84 in2.5 miNW (320°)13.8 mph20.7 mph0.00 inSnowLight Snow
4:54 AM8.1 °F1.0 °F73 %29.89 in2.0 miNNW (330°)15.0 mph25.3 mph0.00 inSnowLight Snow
5:05 AM6.8 °F1.4 °F79 %29.86 in2.0 miNNW (330°)16.1 mph26.5 mph0.00 inSnowLight Snow
5:18 AM6.8 °F1.4 °F79 %29.87 in2.5 miNNW (330°)11.5 mph25.3 mph0.00 inSnowLight Snow
5:26 AM6.8 °F-0.4 °F72 %29.88 in3.0 miNW (320°)16.1 mph21.9 mph0.00 inSnowLight Snow
5:50 AM6.8 °F-0.4 °F72 %29.89 in2.5 miNNW (330°)13.8 mph25.3 mph0.00 inSnowLight Snow
5:54 AM5.0 °F-0.9 °F76 %29.95 in2.5 miNW (320°)16.1 mph21.9 mph0.00 inSnowLight Snow
6:33 AM5.0 °F-2.2 °F72 %29.94 in3.0 miNW (320°)16.1 mph0.00 inSnowLight Snow
6:42 AM3.2 °F-2.2 °F78 %29.95 in4.0 miNW (320°)13.8 mph0.00 inSnowLight Snow
6:54 AM3.9 °F-2.9 °F73 %30.02 in8.0 miNNW (330°)10.4 mph21.9 mph0.00 inSnowLight Snow
7:54 AM3.9 °F-4.0 °F70 %30.08 in9.0 miNNW (340°)11.5 mph19.6 mph0.00 inOvercast
8:54 AM3.9 °F-4.0 °F70 %30.12 in5.0 miNNW (330°)10.4 mph17.3 mph0.00 inOvercast
9:54 AM3.9 °F-2.9 °F73 %30.17 in2.5 miWNW (300°)13.8 mph25.3 mph0.00 inOvercast
10:05 AM5.0 °F-2.2 °F72 %30.12 in3.0 miNW (320°)16.1 mph21.9 mph0.00 inOvercast
10:13 AM5.0 °F-2.2 °F72 %30.13 in2.5 miNW (310°)16.1 mph0.00 inOvercast
10:42 AM5.0 °F-2.2 °F72 %30.13 in4.0 miNW (320°)23.0 mph29.9 mph0.00 inSnowBlowing Snow
10:54 AM5.0 °F-2.9 °F70 %30.19 in4.0 miNW (310°)24.2 mph32.2 mph0.00 inSnowBlowing Snow
11:54 AM7.0 °F-2.9 °F64 %30.21 in7.0 miNW (320°)17.3 mph26.5 mphOvercast
12:28 PM6.8 °F-0.4 °F72 %30.17 in2.0 miWNW (300°)16.1 mph0.00 inSnowLight Snow
12:39 PM8.6 °F-2.2 °F62 %30.17 in6.0 miNW (320°)16.1 mph24.2 mph0.00 inSnowLight Snow
12:54 PM8.1 °F-2.9 °F61 %30.22 in9.0 miWNW (300°)24.2 mph28.8 mph0.00 inMostly Cloudy
1:54 PM9.0 °F-4.0 °F56 %30.25 in7.0 miNW (320°)24.2 mph31.1 mphClear
2:54 PM9.0 °F-5.1 °F53 %30.29 in10.0 miNW (310°)23.0 mphClear
3:54 PM8.1 °F-5.1 °F55 %30.31 in10.0 miNNW (330°)19.6 mphClear
4:54 PM7.0 °F-6.0 °F55 %30.35 in10.0 miNW (320°)18.4 mphClear
5:54 PM7.0 °F-6.0 °F55 %30.39 in10.0 miNW (310°)12.7 mph21.9 mphClear
6:54 PM3.9 °F-7.1 °F60 %30.43 in10.0 miCalmClear
7:54 PM1.9 °F-7.1 °F66 %30.47 in10.0 miCalmClear
8:54 PM0.0 °F-6.0 °F76 %30.46 in10.0 miCalmClear
9:54 PM-2.0 °F-8.0 °F76 %30.47 in10.0 miSouth (190°)5.8 mphClear
10:54 PM-2.0 °F-8.0 °F76 %30.46 in10.0 miSSE (160°)5.8 mphClear
11:54 PM-2.0 °F-9.0 °F72 %30.45 in10.0 miSouth (170°)5.8 mphClear
Hourly data recorded from KAVP, located miles away from Hazleton, Pennsylvania







STORIES FROM OUR PARTNERS